Tracking 21611 objects as of 21-Oct-2020
HD Live streaming from Space Station
objects crossing your sky now

BEIDOU 3M18

Track BEIDOU 3M18 now!
BEIDOU 3M18 is classified as:


NORAD ID: 43707
Int'l Code: 2018-093B
Perigee: 21,506.0 km
Apogee: 21,564.2 km
Inclination: 54.6 °
Period: 773.2 minutes
Semi major axis: 27906 km
RCS: Unknown
Launch date: November 18, 2018
Source: People's Republic of China (PRC)
Launch site: Xichang Space Center, China (XSC)
aabbcc
Your satellite tracking list
Your tracking list is empty




NASA's NSSDC Master Catalog

Two Line Element Set (TLE):
1 43707U 18093B   20294.72925694 +.00000008 +00000-0 +00000-0 0  9991
2 43707 054.5892 252.6608 0010432 287.8147 210.9853 01.86232190013062
Source of the keplerian elements: AFSPC